User: anonymous   Login
Location: Dappach
(48.9767°N, 9.6998°E)
Time: 20:38:38
(UTC+00:00)
Language:

Cosmos 2221 Rocket - Orbit

View from above orbital plane
View from above orbital plane
View from above satellite
View from above satellite

Ground track
Ground track

The orbit data is extracted from the following two-line orbital elements,

1 22237U 92080B   24197.59995533  .00000639  00000-0  82383-4 0  9992
2 22237  82.5098 231.8109 0020050  32.4309 327.8132 14.79385965705388
Epoch (UTC): 15 July 2024 14:23:56
Eccentricity: 0.0020050
inclination: 82.5098°
perigee height: 617 km
apogee height: 645 km
right ascension of ascending node: 231.8109°
argument of perigee: 32.4309°
revolutions per day: 14.79385965
mean anomaly at epoch: 327.8132°
orbit number at epoch: 70538

The dashed part of the orbit path shows where the satellite is in the earth's shadow,  

DLR